Regional Weather Roundup
Issued by NWS Mobile, AL

Home | Current Version | Previous Version | Text Only | Print | Product List | Glossary On
Versions: 1 2 3 4 5 6 7 8 9 10 11 12 13 14 15 16 17 18 19 20 21 22 23 24 25 26 27 28 29 30 31 32 33 34 35 36 37 38 39 40 41 42 43 44 45 46 47 48 49 50
000
ASUS44 KMOB 290412
RWRMOB
REGIONAL WEATHER ROUNDUP
NATIONAL WEATHER SERVICE MOBILE AL
1100 PM CDT SUN AUG 28 2016

NOTE: "FAIR" INDICATES FEW OR NO CLOUDS BELOW 12,000 FEET WITH NO
      SIGNIFICANT WEATHER AND/OR OBSTRUCTIONS TO VISIBILITY.

  * THESE STATIONS ARE PART OF THE UNIVERSITY OF SOUTH ALABAMA
    MESONET AND ARE NOT UNDER NWS OR FAA QUALITY CONTROL.

ALZ061>064-290500-
COASTAL ALABAMA

CITY           SKY/WX    TMP DP  RH WIND       PRES   REMARKS
MOBILE REG APT CLOUDY    75  73  93 N5        30.02S
BROOKLEY FIELD CLOUDY    77  76  96 N6        30.02S
USA CAMPUS*    NOT AVBL
DOG RIVER*     NOT AVBL


CITY           SKY/WX    TMP DP  RH WIND       PRES   REMARKS
MOUNT VERNON*  NOT AVBL
SARALAND*      NOT AVBL
BAY MINETTE*   NOT AVBL
LOXLEY*        NOT AVBL
ROBERTSDALE*   NOT AVBL
FAIRHOPE*      NOT AVBL
ELBERTA*       NOT AVBL
FOLEY*         NOT AVBL
GRAND BAY*     NOT AVBL
DAUPHIN ISLND* NOT AVBL
BON SCOUR NWR* NOT AVBL
GULF SHORES    MOCLDY    76  76 100 NE3       30.00R

$$

ALZ051>060-290500-
INTERIOR SOUTHWEST AND SOUTH CENTRAL ALABAMA

CITY           SKY/WX    TMP DP  RH WIND       PRES   REMARKS
GREENVILLE     MOCLDY    78  71  79 CALM      30.03R
EVERGREEN      MOCLDY    77  75  93 CALM      30.02S
CASTLEBERRY*   NOT AVBL
ATMORE*        NOT AVBL
DIXIE*         NOT AVBL
ANDALUSIA/OPP  CLOUDY    80  72  76 CALM      30.02R
ANDALUSIA*     NOT AVBL
FLORALA APT    MOCLDY    76  74  93 CALM      30.03S
FLORALA*       NOT AVBL

$$

FLZ001>006-290500-
WESTERN FLORIDA PANHANDLE

CITY           SKY/WX    TMP DP  RH WIND       PRES   REMARKS
PENSACOLA      MOCLDY    81  76  84 CALM      30.00S
NAS PENSACOLA  PTCLDY    79  76  90 CALM      29.99S
MILTON         CLEAR     75  75 100 CALM      30.01S
WHTNG S FIELD  PTCLDY    80  78  94 E5        30.01S


CITY           SKY/WX    TMP DP  RH WIND       PRES   REMARKS
WALNUT HILL*   NOT AVBL
JAY*           NOT AVBL
DUKE FIELD     MOCLDY    78  74  88 NW3       29.99F
CRESTVIEW      PTCLDY    77  74  90 CALM      30.02F
VALPARAISO     PTCLDY    78  75  90 CALM      29.99S
DESTIN         CLOUDY    82  77  84 CALM      29.99S

$$

MSZ076-079-290500-
INTERIOR SOUTHEAST MISSISSIPPI

CITY           SKY/WX    TMP DP  RH WIND       PRES   REMARKS
LEAKESVILLE*   NOT AVBL
AGRICOLA*      NOT AVBL

$$

MARINE OBSERVATIONS

STATION/POSITION TIME  TEMP    WIND        PRES    WAVE
                       AIR SEA DIR/SP/G            HT/PER
                 (UTC) (F)     (DEG/KT/KT) (MB)    (FT/S)
PASCAGOULA       0300   76      20/  6/  8 1015.6R
PETIT BOIS ISLND 0300   80      30/  9/ 10 1016.2R
GRAND BAY        0200   75      20/  5     1016.0
KATRINA CUT      0300   80      30/ 10     1016.3R
CEDAR POINT      0300   78     360/  6     1015.6R
E DAUPHIN ISLAND 0300   83      50/  9/ 10 1015.2R
MIDDLE BAY LIGHT 0300   81      40/  9     1015.6R
USCG MOBILE BAY  0300   77 86  330/  2/  3 1016.5R
STATE DOCKS      0300   78 88              1015.8R
MEAHER PARK      0300   76      30/  4     1015.9R
WEEKS BAY        0200   77                   N/A
FORT MORGAN      0300   82      80/  7/  9 1015.0R
12 S ORANGE BCH  0350   84 86   80/ 12/ 14 1015.2S   3/ 6
PENSACOLA BAY    0300   83 87   40/  2/  3 1016.0R
64 S DAUPHIN ISL 0300   83 85   60/ 12/ 16 1014.5R
67 S FORT MORGAN 0330   83      70/ 16     1014.2S

$$

SELECTED LOCATIONS ACROSS THE REGION

CITY           SKY/WX    TMP DP  RH WIND       PRES   REMARKS
NEW ORLEANS    CLOUDY    82  74  76 E6        29.99R
GULFPORT       CLOUDY    76  74  93 CALM      29.99S
PASCAGOULA AP  CLOUDY    75  75 100 N5        30.00S
PASCAGOULA*    NOT AVBL
HATTIESBURG    CLOUDY    78  74  87 S3        30.03S
LAUREL         MOCLDY    77  73  88 NE3       30.04S
MERIDIAN       PTCLDY    78  73  84 CALM      30.04R
JACKSON        MOCLDY    79  72  79 E5        30.03R
MONTGOMERY     MOCLDY    83  70  64 N3        30.03S
TROY           CLEAR     75  73  93 CALM      30.04S
KINSTON*       NOT AVBL
GENEVA*        NOT AVBL
ASHFORD*       NOT AVBL
DOTHAN         CLOUDY    77  70  79 E5        30.06R
PANAMA CITY    CLOUDY    77  75  93 NW3       29.99S

$$




USA.gov is the U.S. government's official web portal to all federal, state and local government web resources and services.